Location: Plymouth
(43.7570°N, 71.6890°W)
Time: 17:07:31
(UTC-05:00)

Amateur Radio Satellites - All Passes

Search period start: 18 January 2017 16:37
Search period end: 19 January 2017 16:37
Location: Plymouth, 43.7570°N, 71.6890°W

Satellite Date Start Highest point End Downlink Frequencies (MHz)
Time Altitude Azimuth
MOZHAYETS 4 18 Jan 16:39:36 16:43:08 22° 295° (WNW) 16:46:38
DANDE 18 Jan 16:39:41 16:45:28 24° 275° (W) 16:51:40 436.750
AUBIESAT-1 18 Jan 16:40:48 16:44:06 48° 293° (WNW) 16:47:17 437.475
YUBILEINY 18 Jan 16:53:47 16:58:14 14° 306° (NW) 17:02:43 435.215
CUTE-I 18 Jan 16:54:47 17:00:00 62° 72° (ENE) 17:05:15 437.470
BEESAT 2 18 Jan 16:57:31 17:01:19 50° 119° (ESE) 17:05:12 435.950
STARS 18 Jan 16:57:33 17:01:54 80° 287° (WNW) 17:06:17 437.465
HO-68 18 Jan 17:05:39 17:11:19 26° 57° (ENE) 17:17:00 435.675
DOVE 4 18 Jan 17:13:14 17:18:18 86° 80° (E) 17:23:07 437.250
CUBESAT XI-V 18 Jan 17:18:35 17:23:07 49° 288° (WNW) 17:27:36 437.345
CINEMA 3 18 Jan 17:22:09 17:25:46 25° 68° (ENE) 17:29:17 145.822/145.860
NOAA 18 18 Jan 17:23:35 17:29:01 65° 72° (ENE) 17:34:28 137.9125
O/OREOS (USA 219) 18 Jan 17:24:07 17:27:14 19° 259° (W) 17:30:21 437.305
KKS-1 18 Jan 17:35:43 17:38:36 17° 297° (WNW) 17:41:28 437.445
Cosmos 2504 18 Jan 17:36:08 17:39:31 13° 304° (NW) 17:42:52 435.465 / 435.565
Cubesat XI-IV 18 Jan 17:37:18 17:42:31 58° 259° (WSW) 17:47:48 437.490
CUTE 1.7 + AOD 2 18 Jan 17:43:12 17:46:33 23° 67° (ENE) 17:49:56 437.475
HORYU 2 18 Jan 17:45:56 17:48:21 14° 269° (W) 17:50:48 437.375
GONETS M04 18 Jan 17:47:35 17:50:55 13° 72° (ENE) 17:54:15
BRITE-PL 18 Jan 17:50:06 17:51:36 11° 275° (W) 17:53:06 437.365/2234.400
NOAA 15 18 Jan 17:54:32 17:59:26 38° 262° (W) 18:04:24 137.62
BEESAT 3 18 Jan 17:56:10 17:59:15 22° 317° (NW) 18:02:22 437.485
LilacSat-2 18 Jan 18:02:52 18:05:44 21° 266° (W) 18:08:38 437.200
GOMX 1 18 Jan 18:02:56 18:06:21 17° 270° (W) 18:09:42 467.674
Cosmos 2499 18 Jan 18:04:53 18:10:47 22° 81° (E) 18:16:25 435.465 / 435.565
SO-50 18 Jan 18:09:28 18:12:14 16° 250° (WSW) 18:14:59 436.795
CANX-2 18 Jan 18:11:02 18:15:09 52° 73° (ENE) 18:19:19 2200.000
STRAND 1 18 Jan 18:11:45 18:15:32 20° 92° (E) 18:19:17 437.568
SEEDS 18 Jan 18:26:46 18:30:46 44° 72° (ENE) 18:34:49 437.485
CUBEBUG 2 18 Jan 18:31:09 18:34:49 30° 69° (ENE) 18:38:28 437.445
Oscar 11 18 Jan 18:34:05 18:35:49 12° 61° (ENE) 18:37:34 145.826/435.025
BEESAT 2 18 Jan 18:36:23 18:39:22 20° 318° (NW) 18:42:23 435.950
COMPASS 1 18 Jan 18:36:26 18:40:18 37° 71° (ENE) 18:44:13 437.405
CUTE-I 18 Jan 18:36:55 18:40:29 18° 269° (W) 18:44:03 437.470
AIST 2 18 Jan 18:38:36 18:40:22 13° 109° (ESE) 18:42:10 435.215
AAUSAT CUBESAT 2 18 Jan 18:49:53 18:53:47 40° 71° (ENE) 18:57:43 437.432
HO-68 18 Jan 18:51:15 18:58:25 71° 256° (WSW) 19:05:39 435.675
DOVE 4 18 Jan 18:54:59 18:56:30 11° 272° (W) 18:58:00 437.250
CINEMA 3 18 Jan 18:58:48 19:02:47 32° 263° (W) 19:06:40 145.822/145.860
UWE-3 18 Jan 19:03:44 19:07:39 43° 72° (ENE) 19:11:35 435.000/436.395/437.385
FUNcube-1 18 Jan 19:05:58 19:09:22 26° 68° (ENE) 19:12:49 145.935
NOAA 18 18 Jan 19:06:26 19:10:08 18° 269° (W) 19:13:51 137.9125
CUTE 1.7 + AOD 2 18 Jan 19:18:22 19:22:12 33° 264° (W) 19:26:07 437.475
ZACube-1 18 Jan 19:27:10 19:31:08 47° 72° (ENE) 19:35:08 437.345
GONETS M04 18 Jan 19:37:21 19:45:55 68° 93° (E) 19:54:36
CANX-2 18 Jan 19:48:55 19:51:19 15° 270° (W) 19:53:44 2200.000
STRAND 1 18 Jan 19:50:01 19:55:00 52° 289° (WNW) 19:59:58 437.568
Cosmos 2499 18 Jan 19:54:35 20:03:06 80° 279° (W) 20:11:01 435.465 / 435.565
HUMSAT D 18 Jan 19:57:48 20:00:29 17° 64° (ENE) 20:03:13 437.325/437.525
SEEDS 18 Jan 20:03:56 20:06:41 17° 269° (W) 20:09:28 437.485
Oscar 11 18 Jan 20:07:03 20:11:21 74° 257° (WSW) 20:15:41 145.826/435.025
CUBEBUG 2 18 Jan 20:08:08 20:11:28 23° 266° (W) 20:14:49 437.445
COMPASS 1 18 Jan 20:12:55 20:15:59 20° 267° (W) 20:19:04 437.405
AIST 2 18 Jan 20:14:10 20:18:16 68° 306° (NW) 20:22:27 435.215
PRISM 18 Jan 20:16:30 20:19:19 18° 93° (E) 20:22:05 437.425
DELFI C3 18 Jan 20:24:57 20:28:54 59° 74° (ENE) 20:32:53 145.870
AAUSAT CUBESAT 2 18 Jan 20:26:32 20:29:25 18° 268° (W) 20:32:20 437.432
UWE-3 18 Jan 20:41:42 20:44:20 16° 268° (W) 20:46:59 435.000/436.395/437.385
FUNcube-1 18 Jan 20:42:00 20:45:33 27° 265° (W) 20:49:07 145.935
HO-68 18 Jan 20:44:51 20:47:22 12° 275° (W) 20:49:55 435.675
ZACube-1 18 Jan 21:05:17 21:07:42 15° 269° (W) 21:10:07 437.345
RS-15 18 Jan 21:12:33 21:16:22 12° 91° (E) 21:20:12 29.354- 29.394
CUBEBUG 1 18 Jan 21:28:52 21:31:25 15° 62° (ENE) 21:33:58 437.445
HUMSAT D 18 Jan 21:31:52 21:35:46 43° 261° (W) 21:39:44 437.325/437.525
GONETS M04 18 Jan 21:36:14 21:43:29 29° 295° (WNW) 21:50:49
UNISAT 6 18 Jan 21:37:54 21:42:08 44° 99° (E) 21:46:26 437.425
AISAT 18 Jan 21:40:22 21:42:38 14° 61° (ENE) 21:44:53 437.250
JAS-2 18 Jan 21:45:01 21:50:55 27° 93° (E) 21:57:09 435.910
PRISM 18 Jan 21:50:54 21:54:47 40° 290° (WNW) 21:58:37 437.425
ESTCUBE 1 18 Jan 21:51:44 21:55:59 41° 70° (ENE) 22:00:16 437.505/2401.250
TIGRISAT 18 Jan 21:51:48 21:56:09 58° 101° (E) 22:00:35 435.000
Cosmos 2499 18 Jan 21:52:25 21:57:28 17° 299° (WNW) 22:02:19 435.465 / 435.565
ISS 18 Jan 21:53:40 21:55:59 18° 134° (SE) 21:58:18 145.825
AIST 2 18 Jan 21:55:49 21:57:34 12° 326° (NNW) 21:59:17 435.215
DELFI C3 18 Jan 22:02:42 22:04:05 12° 271° (W) 22:05:29 145.870
ANTELSAT 18 Jan 22:06:29 22:10:56 88° 107° (ESE) 22:15:26 437.575/2403.000
BY70-1 18 Jan 22:06:53 22:09:47 56° 259° (W) 22:12:58 436.1900
AO-85 18 Jan 22:11:11 22:14:57 41° 50° (NE) 22:18:39 145.980
VELOX 1 18 Jan 22:12:10 22:15:51 26° 67° (ENE) 22:19:34 145.980
POPSAT HIP 1 18 Jan 22:22:28 22:24:14 12° 90° (E) 22:25:59 437.405
DUCHIFAT 1 18 Jan 22:35:12 22:37:36 15° 91° (E) 22:40:00 145.980
NANOSAT C BR1 18 Jan 22:39:17 22:42:13 18° 93° (E) 22:45:07 145.865
DX 1 18 Jan 22:50:28 22:54:21 32° 68° (ENE) 22:58:16 434.975-435.025
UKube-1 18 Jan 22:53:47 22:57:22 26° 66° (ENE) 23:00:58 .
SPROUT 18 Jan 22:54:49 22:58:56 50° 73° (ENE) 23:03:04 437.525
CUBEBUG 1 18 Jan 23:02:52 23:07:14 59° 260° (W) 23:11:36 437.445
YUBILEINY 18 Jan 23:04:31 23:09:17 15° 55° (NE) 23:14:00 435.215
50 SAT 18 Jan 23:11:01 23:14:35 84° 76° (ENE) 23:18:12 437.505
AISAT 18 Jan 23:14:07 23:18:32 68° 258° (WSW) 23:22:59 437.250
RS-15 18 Jan 23:14:26 23:25:53 59° 113° (ESE) 23:37:48 29.354- 29.394
UNISAT 6 18 Jan 23:15:23 23:18:33 20° 295° (WNW) 23:21:46 437.425
BUGSAT 1 18 Jan 23:17:40 23:20:00 15° 92° (E) 23:22:21 437.445
ISS 18 Jan 23:28:57 23:32:11 62° 331° (NNW) 23:35:25 145.825
PCSat 18 Jan 23:29:10 23:32:04 15° 104° (ESE) 23:34:59 145.827
JAS-2 18 Jan 23:29:18 23:36:15 66° 288° (WNW) 23:43:51 435.910
QB50P1 18 Jan 23:29:26 23:33:39 69° 102° (ESE) 23:37:51 145.935-145.965
ESTCUBE 1 18 Jan 23:29:34 23:32:57 21° 267° (W) 23:36:22 437.505/2401.250
TIGRISAT 18 Jan 23:29:47 23:32:24 16° 297° (WNW) 23:35:03 435.000
POLYITAN 1 18 Jan 23:32:58 23:37:12 77° 103° (ESE) 23:41:26 437.675
QB50P2 18 Jan 23:34:08 23:38:23 85° 100° (E) 23:42:37 145.880/145.840
ANTELSAT 18 Jan 23:45:53 23:46:58 11° 300° (WNW) 23:48:04 437.575/2403.000
VELOX 1 18 Jan 23:48:13 23:52:12 32° 263° (W) 23:56:12 145.980
AO-85 18 Jan 23:52:19 23:55:01 18° 248° (WSW) 23:57:44 145.980
POPSAT HIP 1 18 Jan 23:56:14 00:00:24 61° 286° (WNW) 00:04:33 437.405
Cosmos 2491 18 Jan 23:58:48 00:01:59 12° 72° (ENE) 00:05:10 435.465 / 435.565
DUCHIFAT 1 19 Jan 00:09:31 00:13:34 50° 287° (WNW) 00:17:38 145.980
AIST 1 19 Jan 00:11:36 00:15:20 28° 74° (ENE) 00:19:02
NANOSAT C BR1 19 Jan 00:14:08 00:18:06 41° 289° (WNW) 00:22:03 145.865
Oscar 19 19 Jan 00:15:37 00:19:21 20° 92° (E) 00:23:01 437.125/150
Gurwin Techsat 1B 19 Jan 00:17:24 00:18:05 10° 86° (E) 00:18:47 435.225
BEESAT 19 Jan 00:17:59 00:20:45 16° 60° (ENE) 00:23:32 436.000
SWISSCUBE 19 Jan 00:19:00 00:22:08 18° 61° (ENE) 00:25:15 437.505
DX 1 19 Jan 00:26:57 00:30:34 25° 265° (W) 00:34:11 434.975-435.025
TISAT 1 19 Jan 00:29:18 00:33:29 83° 78° (ENE) 00:37:40 437.305
UKube-1 19 Jan 00:29:27 00:33:18 31° 263° (W) 00:37:09 .
SPROUT 19 Jan 00:32:41 00:35:09 15° 269° (W) 00:37:38 437.525
BEESAT 3 19 Jan 00:33:17 00:37:05 40° 50° (NE) 00:40:51 437.485
BUGSAT 1 19 Jan 00:51:46 00:55:37 45° 288° (WNW) 00:59:29 437.445
YUBILEINY 19 Jan 00:59:11 01:08:02 69° 79° (E) 01:16:45 435.215
ISS 19 Jan 01:06:30 01:09:07 22° 351° (N) 01:11:45 145.825
QB50P1 19 Jan 01:07:07 01:08:51 12° 299° (WNW) 01:10:35 145.935-145.965
PCSat 19 Jan 01:09:19 01:14:44 81° 302° (WNW) 01:20:12 145.827
POLYITAN 1 19 Jan 01:11:01 01:12:23 11° 300° (WNW) 01:13:44 437.675
QB50P2 19 Jan 01:12:49 01:13:31 10° 300° (WNW) 01:14:12 145.880/145.840
BEESAT 2 19 Jan 01:13:57 01:17:53 46° 51° (NE) 01:21:47 435.950
JAS-2 19 Jan 01:16:40 01:20:11 15° 306° (NW) 01:23:51 435.910
M-CUBED/EXP-1 PRIME 19 Jan 01:16:51 01:18:43 13° 57° (ENE) 01:20:33 437.505
ITUPSAT 1 19 Jan 01:17:28 01:22:06 53° 71° (ENE) 01:26:46 437.325
RS-15 19 Jan 01:27:06 01:38:45 52° 319° (NW) 01:50:47 29.354- 29.394
Cosmos 2504 19 Jan 01:27:17 01:34:36 54° 76° (ENE) 01:41:35 435.465 / 435.565
Cosmos 2491 19 Jan 01:48:26 01:57:01 67° 93° (E) 02:05:38 435.465 / 435.565
AIST 1 19 Jan 01:49:20 01:52:48 24° 271° (W) 01:56:14
CUSAT 1 19 Jan 01:53:00 01:56:23 18° 79° (ENE) 02:00:18 437.405
BEESAT 19 Jan 01:53:16 01:57:59 68° 258° (WSW) 02:02:45 436.000
AUBIESAT-1 19 Jan 01:53:24 01:56:45 23° 62° (ENE) 01:59:57 437.475
Gurwin Techsat 1B 19 Jan 01:53:29 01:58:50 82° 104° (ESE) 02:04:10 435.225
Oscar 19 19 Jan 01:53:56 01:58:59 54° 289° (WNW) 02:03:59 437.125/150
SWISSCUBE 19 Jan 01:54:46 01:59:27 58° 259° (W) 02:04:10 437.505
MOZHAYETS 4 19 Jan 02:04:42 02:09:04 47° 71° (ENE) 02:13:29
BEESAT 3 19 Jan 02:11:26 02:14:27 21° 247° (WSW) 02:17:27 437.485
STARS 19 Jan 02:21:57 02:23:39 12° 60° (ENE) 02:25:22 437.465
ITAMSAT 1 19 Jan 02:32:53 02:37:46 39° 98° (E) 02:42:38 435.822/435.867
ISS 19 Jan 02:43:42 02:46:22 23° 11° (N) 02:49:02 145.825
PHONESAT 2.4 19 Jan 02:45:53 02:47:37 19° 163° (SSE) 02:49:23 2401.200-2431.200
CUBESAT XI-V 19 Jan 02:46:39 02:50:14 22° 65° (ENE) 02:53:50 437.345
M-CUBED/EXP-1 PRIME 19 Jan 02:48:17 02:52:43 77° 253° (WSW) 02:56:53 437.505
BEESAT 2 19 Jan 02:52:33 02:55:20 18° 248° (WSW) 02:58:07 435.950
PCSat 19 Jan 02:55:28 02:59:00 17° 322° (NW) 03:02:33 145.827
AIST 2 19 Jan 02:56:37 02:59:31 18° 39° (NE) 03:02:24 435.215
KKS-1 19 Jan 02:57:03 03:01:25 56° 72° (ENE) 03:05:47 437.445
YUBILEINY 19 Jan 02:57:04 03:04:01 27° 279° (W) 03:10:58 435.215
ITUPSAT 1 19 Jan 02:57:06 03:00:15 18° 268° (W) 03:03:26 437.325
AO-7 19 Jan 03:04:04 03:12:09 50° 101° (E) 03:20:09 29.400- 29.500
Cosmos 2504 19 Jan 03:21:24 03:27:29 28° 277° (W) 03:33:21 435.465 / 435.565
AUBIESAT-1 19 Jan 03:26:59 03:30:59 36° 256° (WSW) 03:34:46 437.475
CUSAT 1 19 Jan 03:32:15 03:37:13 67° 284° (WNW) 03:43:46 437.405
Gurwin Techsat 1B 19 Jan 03:35:06 03:38:05 15° 302° (WNW) 03:41:06 435.225
MOZHAYETS 4 19 Jan 03:43:19 03:46:29 18° 268° (W) 03:49:41
RS-15 19 Jan 03:44:59 03:55:07 28° 351° (N) 04:05:19 29.354- 29.394
Cosmos 2491 19 Jan 03:47:18 03:54:34 29° 294° (WNW) 04:01:54 435.465 / 435.565
STARS 19 Jan 03:55:00 03:59:23 77° 258° (WSW) 04:03:47 437.465
DANDE 19 Jan 04:06:49 04:10:30 76° 98° (E) 04:15:29 436.750
BRITE-PL 19 Jan 04:11:22 04:15:48 32° 94° (E) 04:19:54 437.365/2234.400
ITAMSAT 1 19 Jan 04:12:40 04:17:04 29° 295° (WNW) 04:21:29 435.822/435.867
PHONESAT 2.4 19 Jan 04:19:18 04:21:27 35° 179° (S) 04:23:37 2401.200-2431.200
ISS 19 Jan 04:20:00 04:23:15 72° 30° (NNE) 04:26:29 145.825
CUBESAT XI-V 19 Jan 04:22:51 04:27:19 43° 262° (W) 04:31:50 437.345
GOMX 1 19 Jan 04:24:56 04:27:37 16° 89° (E) 04:30:13 467.674
AIST 2 19 Jan 04:34:13 04:38:28 71° 238° (WSW) 04:42:40 435.215
KKS-1 19 Jan 04:35:48 04:38:19 15° 269° (W) 04:40:51 437.445
AO-7 19 Jan 04:57:05 05:04:46 42° 301° (WNW) 05:12:24 29.400- 29.500
CUTE-I 19 Jan 05:11:08 05:15:13 22° 93° (E) 05:19:17 437.470
DOVE 4 19 Jan 05:12:01 05:14:55 18° 92° (E) 05:17:47 437.250
CUSAT 1 19 Jan 05:19:01 05:20:57 11° 309° (NW) 05:22:59 437.405
STRAND 1 19 Jan 05:28:40 05:33:11 33° 67° (ENE) 05:37:44 437.568
HORYU 2 19 Jan 05:32:51 05:37:19 87° 285° (WNW) 05:41:47 437.375
LilacSat-2 19 Jan 05:33:44 05:37:19 36° 97° (E) 05:40:54 437.200
NOAA 18 19 Jan 05:44:55 05:49:16 24° 94° (E) 05:53:35 137.9125
Cosmos 2499 19 Jan 05:44:57 05:51:33 37° 71° (ENE) 05:57:59 435.465 / 435.565
GONETS M04 19 Jan 05:46:05 05:54:06 36° 69° (ENE) 06:02:04
BRITE-PL 19 Jan 05:49:53 05:54:12 30° 294° (WNW) 05:58:13 437.365/2234.400
Cubesat XI-IV 19 Jan 05:53:02 05:58:14 51° 100° (E) 06:03:25 437.490
DANDE 19 Jan 05:53:12 05:54:26 11° 306° (NW) 05:55:45 436.750
PHONESAT 2.4 19 Jan 05:53:25 05:55:18 21° 195° (SSW) 05:57:10 2401.200-2431.200
ISS 19 Jan 05:57:22 05:59:23 15° 227° (SW) 06:01:24 145.825
O/OREOS (USA 219) 19 Jan 05:57:28 06:01:39 41° 107° (ESE) 06:05:52 437.305
RS-15 19 Jan 06:01:32 06:12:36 35° 26° (NNE) 06:23:26 29.354- 29.394
GOMX 1 19 Jan 06:01:45 06:06:06 49° 288° (WNW) 06:10:13 467.674
NOAA 15 19 Jan 06:07:44 06:13:05 72° 103° (ESE) 06:18:22 137.62
HO-68 19 Jan 06:18:36 06:23:51 21° 91° (E) 06:29:04 435.675
SO-50 19 Jan 06:45:08 06:47:39 14° 109° (ESE) 06:50:09 436.795
DOVE 4 19 Jan 06:48:55 06:52:51 38° 289° (WNW) 06:56:41 437.250
CUTE-I 19 Jan 06:50:22 06:55:33 51° 290° (WNW) 07:00:42 437.470
CINEMA 3 19 Jan 06:51:12 06:55:16 49° 99° (E) 06:59:24 145.822/145.860
AO-7 19 Jan 06:53:31 06:55:17 11° 324° (NW) 06:57:04 29.400- 29.500
CUTE 1.7 + AOD 2 19 Jan 07:01:29 07:05:29 36° 97° (E) 07:09:27 437.475
PRISM 19 Jan 07:07:21 07:10:00 17° 63° (ENE) 07:12:39 437.425
STRAND 1 19 Jan 07:07:49 07:12:20 32° 264° (W) 07:16:53 437.568
LilacSat-2 19 Jan 07:08:40 07:11:21 18° 294° (WNW) 07:14:01 437.200
HORYU 2 19 Jan 07:12:27 07:13:08 10° 302° (WNW) 07:13:49 437.375
NOAA 18 19 Jan 07:24:55 07:30:10 49° 291° (WNW) 07:35:23 137.9125
CANX-2 19 Jan 07:30:11 07:34:32 88° 104° (ESE) 07:38:49 2200.000
Cubesat XI-IV 19 Jan 07:33:48 07:37:58 24° 298° (WNW) 07:42:08 437.490
O/OREOS (USA 219) 19 Jan 07:37:41 07:41:14 22° 305° (NW) 07:44:46 437.305
Cosmos 2499 19 Jan 07:38:07 07:44:41 40° 272° (W) 07:51:07 435.465 / 435.565
GONETS M04 19 Jan 07:42:44 07:51:14 54° 270° (W) 07:59:43
SEEDS 19 Jan 07:44:29 07:48:46 74° 102° (ESE) 07:53:00 437.485
NOAA 15 19 Jan 07:48:51 07:52:15 17° 301° (WNW) 07:55:38 137.62
COMPASS 1 19 Jan 07:52:51 07:57:01 60° 100° (E) 08:01:10 437.405
Oscar 11 19 Jan 07:53:43 07:56:49 19° 92° (E) 07:59:54 145.826/435.025
CUBEBUG 2 19 Jan 07:55:58 08:00:14 60° 101° (E) 08:04:37 437.445
JAS-2 19 Jan 08:04:19 08:05:05 10° 50° (NE) 08:05:51 435.910
HO-68 19 Jan 08:05:04 08:12:15 76° 289° (WNW) 08:19:23 435.675
AAUSAT CUBESAT 2 19 Jan 08:05:41 08:09:52 64° 100° (E) 08:14:00 437.432
PCSat 19 Jan 08:13:19 08:17:23 21° 41° (NE) 08:21:26 145.827
RS-15 19 Jan 08:14:49 08:27:18 82° 54° (NE) 08:39:17 29.354- 29.394
SO-50 19 Jan 08:22:50 08:27:33 74° 305° (NW) 08:32:13 436.795
FUNcube-1 19 Jan 08:27:27 08:31:40 46° 99° (E) 08:35:57 145.935
UWE-3 19 Jan 08:27:31 08:31:52 84° 103° (ESE) 08:36:19 435.000/436.395/437.385
CINEMA 3 19 Jan 08:29:31 08:32:03 16° 296° (WNW) 08:34:37 145.822/145.860
CUTE 1.7 + AOD 2 19 Jan 08:37:48 08:41:06 22° 294° (WNW) 08:44:23 437.475
UNISAT 6 19 Jan 08:38:01 08:42:03 43° 71° (ENE) 08:46:06 437.425
PRISM 19 Jan 08:40:53 08:44:55 48° 260° (W) 08:48:58 437.425
ZACube-1 19 Jan 08:49:36 08:53:58 88° 101° (E) 08:58:26 437.345
TIGRISAT 19 Jan 08:51:40 08:55:50 57° 73° (ENE) 09:00:01 435.000
ANTELSAT 19 Jan 09:06:26 09:10:42 88° 76° (ENE) 09:14:59 437.575/2403.000
CANX-2 19 Jan 09:09:10 09:09:40 10° 300° (WNW) 09:10:10 2200.000
HUMSAT D 19 Jan 09:13:47 09:17:24 26° 95° (E) 09:21:00 437.325/437.525
POPSAT HIP 1 19 Jan 09:16:51 09:18:28 12° 61° (ENE) 09:20:05 437.405
SEEDS 19 Jan 09:22:15 09:23:51 12° 299° (WNW) 09:25:27 437.485
DUCHIFAT 1 19 Jan 09:28:51 09:31:01 14° 62° (ENE) 09:33:10 145.980
Oscar 11 19 Jan 09:29:01 09:33:08 42° 289° (WNW) 09:37:15 145.826/435.025
COMPASS 1 19 Jan 09:29:53 09:32:04 14° 298° (WNW) 09:34:16 437.405
NANOSAT C BR1 19 Jan 09:33:02 09:35:43 17° 64° (ENE) 09:38:24 145.865
CUBEBUG 2 19 Jan 09:34:05 09:36:24 14° 297° (WNW) 09:38:47 437.445
DELFI C3 19 Jan 09:35:27 09:39:29 83° 103° (ESE) 09:43:28 145.870
AAUSAT CUBESAT 2 19 Jan 09:42:51 09:44:48 13° 298° (WNW) 09:46:45 437.432
JAS-2 19 Jan 09:43:37 09:48:51 65° 71° (ENE) 09:54:38 435.910
HO-68 19 Jan 09:54:36 09:58:49 17° 309° (NW) 10:03:02 435.675
PCSat 19 Jan 09:55:57 10:01:24 78° 241° (WSW) 10:06:49 145.827
FUNcube-1 19 Jan 10:04:35 10:07:35 18° 295° (WNW) 10:10:38 145.935
SO-50 19 Jan 10:06:08 10:08:49 15° 326° (NW) 10:11:28 436.795
UWE-3 19 Jan 10:06:34 10:07:42 11° 299° (WNW) 10:08:50 435.000/436.395/437.385
BUGSAT 1 19 Jan 10:09:17 10:11:18 14° 63° (ENE) 10:13:20 437.445
UNISAT 6 19 Jan 10:16:10 10:19:00 17° 268° (W) 10:21:49 437.425
QB50P1 19 Jan 10:22:45 10:26:52 59° 73° (ENE) 10:31:01 145.935-145.965
POLYITAN 1 19 Jan 10:26:26 10:30:35 66° 74° (ENE) 10:34:45 437.675
QB50P2 19 Jan 10:27:35 10:31:46 73° 75° (ENE) 10:35:59 145.880/145.840
RS-15 19 Jan 10:28:31 10:38:28 31° 258° (WSW) 10:48:09 29.354- 29.394
ZACube-1 19 Jan 10:28:43 10:29:36 11° 300° (WNW) 10:30:29 437.345
TIGRISAT 19 Jan 10:30:53 10:32:55 13° 270° (W) 10:34:55 435.000
BY70-1 19 Jan 10:40:38 10:44:00 60° 101° (E) 10:47:10 436.1900
HUMSAT D 19 Jan 10:49:15 10:52:58 30° 291° (WNW) 10:56:42 437.325/437.525
POPSAT HIP 1 19 Jan 10:49:30 10:53:41 71° 258° (WSW) 10:57:52 437.405
CUBEBUG 1 19 Jan 10:50:38 10:54:03 22° 94° (E) 10:57:25 437.445
DUCHIFAT 1 19 Jan 11:02:06 11:06:13 59° 259° (W) 11:10:21 145.980
AISAT 19 Jan 11:03:36 11:06:51 20° 93° (E) 11:10:04 437.250
NANOSAT C BR1 19 Jan 11:07:02 11:11:05 47° 261° (W) 11:15:08 145.865
ESTCUBE 1 19 Jan 11:19:09 11:23:43 77° 103° (ESE) 11:28:13 437.505/2401.250
JAS-2 19 Jan 11:31:17 11:34:40 17° 272° (W) 11:38:13 435.910
Oscar 19 19 Jan 11:33:20 11:37:57 33° 66° (ENE) 11:42:36 437.125/150
VELOX 1 19 Jan 11:36:23 11:40:34 41° 99° (E) 11:44:42 145.980
Gurwin Techsat 1B 19 Jan 11:37:50 11:41:45 21° 62° (ENE) 11:45:41 435.225
BUGSAT 1 19 Jan 11:42:13 11:46:13 57° 259° (W) 11:50:13 437.445
PCSat 19 Jan 11:42:46 11:43:51 11° 259° (W) 11:44:56 145.827
Cosmos 2491 19 Jan 11:57:17 12:05:13 36° 69° (ENE) 12:13:07 435.465 / 435.565
QB50P1 19 Jan 12:01:13 12:03:01 12° 270° (W) 12:04:49 145.935-145.965
POLYITAN 1 19 Jan 12:05:32 12:06:48 11° 271° (W) 12:08:05 437.675
QB50P2 19 Jan 12:07:44 12:08:04 10° 272° (W) 12:08:23 145.880/145.840
50 SAT 19 Jan 12:08:21 12:11:56 79° 102° (ESE) 12:15:28 437.505
YUBILEINY 19 Jan 12:10:15 12:14:40 15° 74° (ENE) 12:19:05 435.215
DX 1 19 Jan 12:12:48 12:17:02 48° 100° (E) 12:21:13 434.975-435.025
TISAT 1 19 Jan 12:14:03 12:15:17 11° 89° (E) 12:16:32 437.305
UKube-1 19 Jan 12:14:38 12:18:39 37° 98° (E) 12:22:38 .
SPROUT 19 Jan 12:14:46 12:19:04 83° 104° (ESE) 12:23:18 437.525
AO-7 19 Jan 12:15:33 12:20:59 19° 47° (NE) 12:26:24 29.400- 29.500
ITAMSAT 1 19 Jan 12:17:56 12:18:39 10° 54° (NE) 12:19:22 435.822/435.867
CUSAT 1 19 Jan 12:21:58 12:28:05 23° 61° (ENE) 12:34:01 437.405
CUBEBUG 1 19 Jan 12:26:28 12:30:24 35° 291° (WNW) 12:34:19 437.445
AO-85 19 Jan 12:29:52 12:30:52 11° 109° (ESE) 12:31:50 145.980
AISAT 19 Jan 12:39:21 12:43:28 40° 290° (WNW) 12:47:33 437.250
AIST 1 19 Jan 12:43:14 12:45:59 17° 86° (E) 12:48:43
ESTCUBE 1 19 Jan 12:57:51 12:59:53 13° 300° (WNW) 13:01:55 437.505/2401.250
DANDE 19 Jan 12:59:16 13:04:03 17° 61° (ENE) 13:09:07 436.750
Oscar 19 19 Jan 13:12:35 13:17:14 33° 264° (W) 13:21:56 437.125/150
VELOX 1 19 Jan 13:13:30 13:16:45 20° 296° (WNW) 13:19:58 145.980
Gurwin Techsat 1B 19 Jan 13:16:04 13:21:17 57° 259° (W) 13:26:32 435.225
ITUPSAT 1 19 Jan 13:18:34 13:20:30 12° 89° (E) 13:22:26 437.325
TISAT 1 19 Jan 13:47:12 13:51:21 66° 286° (WNW) 13:55:29 437.305
DX 1 19 Jan 13:49:58 13:52:50 18° 297° (WNW) 13:55:42 434.975-435.025
UKube-1 19 Jan 13:51:09 13:54:28 22° 295° (WNW) 13:57:45 .
ITAMSAT 1 19 Jan 13:52:01 13:57:09 69° 73° (ENE) 14:02:19 435.822/435.867
BEESAT 19 Jan 13:52:19 13:56:24 27° 95° (E) 14:00:29 436.000
SPROUT 19 Jan 13:53:24 13:54:19 11° 300° (WNW) 13:55:14 437.525
SWISSCUBE 19 Jan 13:53:41 13:57:58 31° 96° (E) 14:02:14 437.505
Cosmos 2491 19 Jan 13:53:56 14:02:22 54° 270° (W) 14:10:50 435.465 / 435.565
YUBILEINY 19 Jan 14:01:04 14:09:50 75° 94° (E) 14:18:40 435.215
CUSAT 1 19 Jan 14:02:57 14:10:59 86° 261° (W) 14:18:32 437.405
AO-7 19 Jan 14:04:05 14:12:23 74° 68° (ENE) 14:20:45 29.400- 29.500
Cosmos 2504 19 Jan 14:05:53 14:14:01 47° 89° (E) 14:21:44 435.465 / 435.565
AO-85 19 Jan 14:05:59 14:10:43 88° 123° (ESE) 14:15:05 145.980
AIST 1 19 Jan 14:18:59 14:23:11 45° 283° (WNW) 14:27:23
O/OREOS (USA 219) 19 Jan 14:28:02 14:30:17 13° 49° (NE) 14:32:32 437.305
DANDE 19 Jan 14:40:13 14:47:51 73° 79° (ENE) 14:56:13 436.750
ITUPSAT 1 19 Jan 14:54:03 14:58:53 77° 286° (WNW) 15:03:41 437.325
HORYU 2 19 Jan 14:58:42 15:00:17 12° 59° (ENE) 15:01:53 437.375
SO-50 19 Jan 15:13:15 15:16:49 22° 40° (NE) 15:20:20 436.795
BRITE-PL 19 Jan 15:21:50 15:27:15 46° 70° (ENE) 15:32:36 437.365/2234.400
BEESAT 19 Jan 15:29:53 15:34:13 35° 292° (WNW) 15:38:31 436.000
SWISSCUBE 19 Jan 15:31:31 15:35:42 30° 293° (WNW) 15:39:52 437.505
GOMX 1 19 Jan 15:32:56 15:37:16 26° 66° (ENE) 15:41:29 467.674
ITAMSAT 1 19 Jan 15:34:08 15:37:07 15° 270° (W) 15:40:08 435.822/435.867
MOZHAYETS 4 19 Jan 15:35:01 15:39:42 87° 284° (WNW) 15:44:21
Cubesat XI-IV 19 Jan 15:39:35 15:42:20 14° 57° (ENE) 15:45:05 437.490
STARS 19 Jan 15:44:00 15:46:52 17° 92° (E) 15:49:43 437.465
CUSAT 1 19 Jan 15:46:38 15:51:47 19° 280° (W) 15:56:47 437.405
AO-85 19 Jan 15:48:55 15:51:40 16° 322° (NW) 15:54:18 145.980
NOAA 15 19 Jan 15:51:30 15:55:10 19° 60° (ENE) 15:58:50 137.62
AO-7 19 Jan 15:59:12 16:05:50 26° 267° (W) 16:12:34 29.400- 29.500
Cosmos 2504 19 Jan 15:59:26 16:07:28 41° 288° (WNW) 16:15:07 435.465 / 435.565
YUBILEINY 19 Jan 16:00:30 16:07:33 26° 296° (WNW) 16:14:41 435.215
M-CUBED/EXP-1 PRIME 19 Jan 16:00:38 16:03:59 56° 106° (ESE) 16:07:12 437.505
BEESAT 3 19 Jan 16:01:35 16:05:17 43° 118° (ESE) 16:09:02 437.485
O/OREOS (USA 219) 19 Jan 16:05:47 16:10:18 81° 248° (WSW) 16:14:49 437.305
LilacSat-2 19 Jan 16:17:18 16:20:14 22° 67° (ENE) 16:23:10 437.200
CUBESAT XI-V 19 Jan 16:17:50 16:22:18 42° 97° (E) 16:26:43 437.345
DOVE 4 19 Jan 16:17:54 16:21:59 26° 67° (ENE) 16:25:54 437.250
KKS-1 19 Jan 16:22:53 16:27:20 86° 284° (WNW) 16:31:45 437.445
DANDE 19 Jan 16:23:52 16:30:04 27° 274° (W) 16:36:40 436.750
ITUPSAT 1 19 Jan 16:35:09 16:35:52 10° 304° (WNW) 16:36:34 437.325
